Retour au catalogue

FENGYUN 1C DEB

ActifPO
NORAD 31663·DEBRIS·🇨🇳 China

Lancé May 10, 1999 depuis Taiyuan Satellite Launch Center

Loading…

Prochains Passages (prochaines 24 heures)

TLE

FraisSource: Space-Track

Époque: Sep 12, 2026, 13:38 UTC

1 31663U 99025CBV 26255.56867211  .00001623  00000-0  17647-3 0  9990
2 31663  98.8422 194.6580 0188103  95.2943 266.9758 14.77693324 33162

Suivez FENGYUN 1C DEB en temps réel avec AllMySat

Download on the App Store